Probability
6 23 77 77 81 84 71 65 68 68 68 65 65 71 71 65 65 65 52 58 58 61 61 55 55 58 65 58 68 61 58 65 58 58 61 61 61 65 65 68 58 45 58
3 39 87 81 81 77 68 61 55 68 71 61 65 71 71 68 61 65 61 58 55 65 61 55 55 55 61 52 52 55 48 58 55 52 58 58 58 65 61 55 45 48 61
13 23 58 87 84 71 68 58 52 65 65 65 68 65 68 68 55 61 61 68 65 68 58 55 55 52 55 45 48 52 45 45 45 48 52 29 42 58 61 61 58 58 61
10 16 39 81 84 77 58 61 55 55 65 65 68 68 68 65 58 52 55 68 65 58 58 52 45 42 48 52 48 45 48 58 55 42 16 16 19 48 58 65 65 58 55
10 16 39 77 77 71 61 55 58 61 58 58 68 71 65 68 61 52 55 65 68 61 58 42 42 39 39 42 45 52 48 42 52 29 6 6 10 52 58 61 55 52 55
13 16 55 77 81 71 65 65 68 52 52 52 61 61 61 61 55 52 61 71 68 65 55 48 42 35 29 42 39 42 48 39 19 3 3 6 6 48 58 52 48 52 55
13 23 48 74 77 74 71 68 65 68 65 55 55 58 52 52 61 58 65 65 61 61 55 48 42 39 35 35 39 45 52 42 13 3 0 3 3 48 58 65 52 48 55
16 26 39 71 68 68 58 58 61 65 65 61 58 55 45 48 58 61 61 58 71 68 58 48 42 39 35 35 45 55 55 48 13 3 3 0 23 48 55 48 45 48 55
23 29 26 42 48 55 65 52 61 55 61 58 61 52 52 52 58 61 58 68 61 65 55 58 45 42 39 39 39 48 55 45 16 3 3 3 35 45 39 42 42 45 52
23 23 23 19 23 26 45 61 61 61 65 61 65 61 55 55 48 48 52 61 55 61 58 52 48 32 39 45 48 52 45 19 13 6 0 10 39 39 42 45 42 42 42
6 16 19 13 13 16 19 42 55 55 58 55 55 55 48 19 16 23 35 45 52 55 45 48 48 52 48 39 58 52 29 16 3 3 0 19 42 42 48 45 45 45 48
3 6 10 13 16 16 23 19 13 23 29 26 13 19 16 3 3 6 35 55 55 52 45 52 48 45 29 16 19 32 16 10 10 0 3 39 52 48 45 45 42 48 52
3 3 3 6 10 10 13 13 10 13 13 13 6 6 3 3 3 3 3 10 13 26 19 26 39 19 19 13 10 6 6 3 3 0 6 48 48 52 42 45 48 48 48
3 6 6 6 10 6 13 13 13 13 10 10 10 3 3 3 3 3 3 3 3 3 6 3 6 10 6 10 3 3 3 6 3 3 3 39 48 55 42 48 45 42 39
10 6 10 6 6 6 10 10 13 13 16 10 3 10 6 3 3 3 3 6 6 3 3 3 3 3 3 3 3 3 3 3 3 3 3 39 42 52 52 42 42 45 42
13 13 10 10 10 6 10 10 13 6 13 10 10 6 6 10 6 6 6 6 6 6 3 3 3 3 3 3 3 6 3 3 6 3 3 16 39 48 45 42 42 45 42
13 10 6 13 13 6 3 6 13 10 6 6 6 10 6 6 6 6 6 6 6 6 6 3 10 6 6 10 6 6 6 3 3 3 3 3 13 45 48 32 39 35 35
16 16 13 23 19 16 13 13 19 16 13 6 10 13 10 6 6 6 6 10 13 13 10 10 10 10 10 6 3 3 3 3 3 3 3 3 3 10 29 35 42 39 42
16 19 23 23 19 26 19 19 26 16 16 13 16 13 16 13 16 16 13 13 13 10 10 13 6 6 6 6 6 3 3 3 3 3 3 3 3 3 3 6 35 45 45
19 23 26 26 23 26 26 23 26 23 23 16 16 16 19 19 19 16 10 13 13 13 10 10 6 6 6 3 3 3 3 3 3 6 3 3 3 6 3 3 16 23 39
26 23 23 23 26 23 26 26 23 23 23 26 19 23 26 23 26 19 16 13 13 13 13 13 13 10 6 3 3 3 3 3 6 10 10 6 6 10 6 6 6 6 10
23 19 23 26 23 26 26 23 19 19 19 19 19 19 23 26 26 26 16 10 10 6 6 10 13 6 6 6 6 3 3 3 3 6 6 6 6 10 13 13 6 6 6
19 23 26 26 23 23 29 23 23 19 16 19 16 13 23 23 23 13 6 10 16 13 10 10 10 6 6 3 3 6 3 3 3 3 3 10 6 6 6 10 10 13 10
23 23 26 19 29 35 32 26 19 19 23 23 13 16 16 19 16 19 13 10 10 10 13 16 10 10 6 6 3 6 3 6 6 3 3 6 3 3 3 6 13 13 13
32 26 32 29 35 32 32 29 19 19 16 16 16 19 19 23 23 19 16 16 13 16 19 16 10 16 13 10 10 10 10 6 6 6 10 6 6 6 6 6 6 10 10
29 29 35 35 35 32 32 29 35 26 19 19 16 26 23 26 29 23 29 26 19 19 23 16 13 19 19 19 16 13 13 10 6 3 3 6 6 6 6 6 6 10 6
Height
5878 5877 5877 5876 5876 5875 5875 5875 5875 5876 5876 5876 5877 5878 5879 5880 5880 5881 5883 5883 5884 5885 5886 5886 5887 5888 5889 5890 5890 5891 5891 5892 5892 5893 5894 5894 5894 5894 5894 5895 5895 5895 5894
5879 5878 5878 5877 5877 5877 5876 5876 5876 5876 5876 5876 5877 5878 5879 5880 5881 5882 5883 5884 5885 5886 5887 5887 5887 5888 5889 5890 5891 5891 5892 5892 5892 5893 5894 5894 5895 5895 5895 5895 5895 5895 5895
5880 5879 5879 5878 5878 5878 5877 5877 5877 5877 5877 5877 5878 5879 5881 5882 5882 5883 5884 5885 5886 5886 5887 5888 5888 5889 5890 5890 5891 5892 5892 5893 5893 5894 5895 5895 5895 5895 5896 5896 5895 5895 5895
5881 5881 5880 5880 5879 5879 5879 5878 5878 5878 5878 5878 5879 5880 5881 5883 5883 5884 5886 5886 5887 5888 5889 5890 5890 5890 5891 5892 5892 5893 5893 5894 5894 5895 5895 5896 5896 5896 5896 5896 5896 5896 5895
5882 5882 5881 5881 5880 5880 5880 5879 5879 5879 5879 5880 5880 5881 5882 5883 5884 5885 5887 5887 5888 5889 5890 5891 5891 5891 5892 5893 5893 5893 5894 5894 5895 5895 5896 5896 5896 5897 5896 5896 5896 5896 5895
5883 5882 5882 5882 5881 5881 5881 5880 5880 5880 5880 5881 5881 5882 5883 5884 5885 5886 5887 5888 5889 5890 5891 5892 5892 5893 5893 5893 5894 5894 5894 5894 5895 5896 5896 5896 5896 5897 5897 5896 5896 5896 5895
5884 5884 5883 5883 5882 5882 5882 5882 5881 5881 5881 5882 5882 5883 5884 5885 5886 5887 5888 5889 5890 5891 5892 5893 5893 5894 5894 5894 5894 5894 5894 5894 5895 5896 5896 5896 5897 5897 5897 5896 5896 5896 5895
5885 5885 5884 5884 5884 5883 5883 5883 5883 5883 5883 5883 5884 5885 5885 5886 5887 5888 5889 5890 5891 5892 5893 5894 5894 5894 5894 5895 5894 5894 5894 5894 5895 5896 5896 5896 5897 5896 5896 5896 5896 5895 5895
5886 5886 5886 5885 5885 5885 5884 5884 5884 5884 5884 5885 5885 5886 5887 5887 5888 5889 5890 5891 5892 5893 5893 5894 5895 5895 5895 5895 5895 5894 5894 5894 5895 5896 5896 5896 5896 5896 5896 5895 5895 5894 5894
5888 5888 5887 5887 5886 5886 5886 5886 5886 5885 5886 5886 5886 5887 5888 5888 5889 5890 5891 5892 5893 5893 5894 5894 5895 5895 5895 5895 5895 5895 5894 5894 5895 5895 5896 5896 5895 5895 5895 5895 5894 5894 5893
5889 5889 5889 5888 5888 5887 5887 5887 5887 5887 5887 5888 5888 5888 5889 5889 5890 5891 5892 5892 5893 5893 5894 5895 5895 5895 5895 5896 5895 5895 5895 5895 5895 5895 5895 5895 5895 5895 5894 5894 5894 5893 5893
5891 5891 5890 5890 5890 5889 5889 5888 5888 5889 5889 5889 5889 5890 5890 5890 5891 5891 5892 5893 5893 5894 5894 5895 5895 5895 5895 5895 5895 5895 5895 5895 5895 5895 5894 5894 5894 5894 5893 5893 5892 5892 5892
5893 5893 5892 5892 5891 5891 5890 5890 5890 5890 5890 5890 5890 5891 5891 5891 5892 5892 5892 5893 5893 5894 5894 5894 5895 5895 5895 5895 5895 5895 5895 5894 5894 5893 5893 5893 5893 5892 5892 5892 5891 5891 5890
5894 5894 5894 5893 5893 5892 5892 5892 5891 5891 5891 5891 5891 5891 5891 5891 5892 5892 5892 5892 5893 5893 5894 5894 5894 5894 5895 5895 5895 5894 5894 5894 5893 5893 5893 5892 5892 5891 5891 5890 5890 5889 5889
5896 5896 5895 5895 5894 5894 5894 5893 5893 5892 5892 5892 5891 5892 5892 5891 5891 5891 5892 5892 5892 5893 5893 5893 5894 5894 5894 5893 5893 5893 5893 5893 5892 5892 5892 5891 5891 5891 5890 5889 5888 5888 5887
5897 5897 5897 5896 5896 5895 5895 5895 5894 5894 5893 5893 5892 5892 5892 5892 5892 5891 5891 5892 5892 5892 5892 5892 5893 5893 5893 5892 5892 5892 5892 5892 5891 5891 5890 5890 5890 5889 5889 5888 5887 5887 5886
5899 5899 5898 5898 5897 5897 5896 5896 5895 5894 5894 5893 5893 5892 5892 5892 5892 5892 5891 5891 5891 5891 5891 5891 5891 5891 5891 5891 5891 5891 5891 5890 5889 5889 5888 5888 5888 5888 5887 5886 5886 5885 5884
5901 5900 5900 5899 5899 5898 5897 5897 5896 5895 5894 5894 5893 5893 5893 5892 5892 5892 5891 5891 5891 5891 5891 5891 5891 5890 5890 5890 5890 5889 5889 5888 5887 5887 5886 5886 5886 5885 5885 5884 5884 5883 5882
5902 5901 5901 5900 5900 5899 5898 5898 5897 5896 5895 5894 5894 5893 5892 5892 5891 5891 5891 5890 5890 5890 5889 5889 5889 5889 5889 5888 5888 5888 5887 5886 5886 5885 5884 5884 5883 5883 5882 5882 5881 5881 5880
5903 5903 5902 5902 5901 5900 5899 5898 5898 5897 5896 5895 5894 5893 5892 5891 5891 5890 5890 5889 5889 5889 5888 5888 5888 5887 5887 5887 5886 5886 5885 5885 5884 5883 5882 5881 5881 5880 5880 5879 5878 5878 5877
5904 5904 5903 5903 5902 5901 5900 5899 5898 5897 5896 5895 5894 5893 5892 5891 5891 5890 5890 5889 5888 5888 5887 5887 5886 5886 5885 5885 5885 5884 5883 5883 5882 5881 5880 5879 5879 5878 5877 5876 5876 5875 5875
5905 5905 5904 5903 5902 5901 5901 5900 5899 5898 5897 5896 5894 5893 5892 5891 5890 5890 5889 5888 5888 5887 5886 5886 5885 5885 5884 5883 5883 5882 5881 5881 5880 5879 5878 5877 5876 5876 5875 5874 5873 5872 5872
5906 5905 5905 5904 5903 5902 5901 5900 5899 5898 5897 5895 5894 5893 5892 5891 5890 5889 5888 5888 5887 5886 5885 5885 5884 5883 5882 5881 5880 5880 5879 5878 5878 5877 5875 5875 5873 5872 5871 5870 5870 5869 5869
5906 5906 5905 5904 5903 5902 5901 5900 5899 5897 5896 5895 5894 5893 5892 5890 5889 5889 5888 5887 5886 5885 5884 5883 5882 5881 5880 5879 5878 5877 5876 5875 5875 5874 5873 5871 5870 5869 5868 5868 5867 5866 5865
5906 5906 5905 5904 5903 5902 5901 5900 5898 5897 5896 5895 5894 5893 5891 5890 5889 5888 5887 5886 5884 5883 5882 5881 5880 5879 5878 5877 5876 5875 5874 5873 5872 5871 5870 5869 5867 5866 5865 5865 5864 5863 5862
5906 5905 5905 5904 5903 5902 5900 5899 5898 5897 5895 5894 5893 5892 5891 5890 5888 5887 5886 5885 5883 5882 5881 5879 5878 5876 5875 5874 5873 5872 5871 5870 5869 5868 5867 5866 5865 5864 5862 5861 5860 5859 5858
Wind_Speed
7 7 6 6 7 6 6 5 5 6 6 6 7 8 9 9 9 9 9 9 9 9 8 9 10 10 10 9 8 8 7 7 8 8 7 6 6 5 5 5 5 5 6
8 7 7 7 7 7 7 6 6 6 6 6 7 8 9 9 9 9 9 9 10 9 9 9 10 11 10 9 8 8 7 7 8 8 7 7 6 5 4 4 4 5 5
9 9 8 7 7 7 8 7 6 6 7 7 8 9 9 9 9 9 9 9 10 9 9 9 10 10 9 9 9 8 8 8 8 8 7 7 6 5 4 4 4 5 5
9 9 9 7 7 7 8 8 7 6 7 8 9 10 9 9 10 9 9 10 10 10 9 9 10 11 10 10 9 9 9 9 8 8 7 7 6 5 4 4 3 4 4
9 9 8 8 7 7 7 7 7 6 7 8 9 9 9 9 9 9 9 10 10 10 10 9 9 9 9 9 9 9 8 8 8 7 6 5 4 4 4 3 3 3 3
8 9 8 7 7 7 7 7 7 7 7 8 8 9 9 9 9 9 9 9 9 9 9 9 9 8 8 8 7 7 6 6 6 5 4 4 3 3 3 3 2 2 2
8 8 8 8 7 7 7 7 7 7 8 9 9 8 8 9 10 10 10 10 10 9 9 8 8 7 7 6 6 5 5 5 5 4 3 3 3 3 2 2 2 1 1
9 9 8 8 8 8 9 8 7 7 8 8 8 8 9 9 9 9 9 10 9 8 7 7 7 7 6 6 5 5 5 5 4 4 3 3 3 2 2 2 1 1 1
10 10 10 9 9 9 9 9 8 7 8 9 9 8 9 9 8 8 8 9 8 7 7 7 6 6 5 5 5 5 5 4 4 3 3 2 2 2 2 2 1 1 2
10 10 10 10 10 9 9 9 9 9 9 9 9 8 8 8 8 8 8 8 7 7 7 7 6 5 4 4 4 4 4 4 4 3 2 2 2 2 2 2 1 1 2
10 10 10 10 10 9 9 9 9 9 9 9 8 8 8 8 7 8 8 7 7 6 6 5 5 5 4 3 3 3 3 3 3 3 2 2 2 2 2 2 2 2 2
10 10 10 10 10 10 9 9 9 8 8 7 7 8 7 7 6 7 7 6 6 5 5 4 4 4 3 3 2 2 2 2 3 2 2 2 2 3 3 3 4 4 4
11 11 11 11 11 10 10 9 9 8 7 7 6 6 6 6 6 6 6 6 5 4 4 3 3 3 3 3 2 1 1 2 2 2 2 3 3 3 4 4 4 5 5
12 12 11 11 10 10 10 9 9 9 8 6 5 5 6 5 4 5 5 5 4 4 3 3 4 4 4 4 3 3 3 3 3 3 3 4 4 4 4 5 5 5 5
12 12 12 11 10 10 9 10 10 9 8 7 6 5 4 4 3 3 4 4 4 4 4 4 4 4 4 4 4 4 4 4 4 4 4 4 5 5 5 5 5 5 5
12 12 12 11 11 10 10 10 9 8 8 6 5 4 3 3 3 2 3 4 3 3 4 4 4 5 6 5 5 5 6 6 6 7 6 6 6 6 6 6 6 5 5
11 11 11 11 11 11 10 9 9 8 8 7 6 5 3 3 3 2 3 3 3 4 4 4 5 5 5 6 6 6 7 7 8 8 8 8 7 7 7 7 7 7 7
10 10 11 10 11 10 9 9 9 8 8 7 6 5 4 3 2 1 1 2 2 3 3 3 3 4 5 6 6 6 6 7 8 8 9 9 9 8 8 7 8 8 8
9 10 10 10 10 9 9 9 8 8 7 7 6 5 3 3 2 1 1 1 2 2 3 3 4 5 6 6 6 6 7 6 7 8 8 9 9 9 9 9 9 9 9
9 9 10 9 9 9 8 8 8 8 7 7 6 5 4 3 2 2 1 1 2 2 2 3 4 5 5 5 6 6 6 7 8 9 10 10 10 10 10 10 11 10 10
8 8 9 9 8 8 8 8 7 7 7 7 6 5 5 4 2 2 2 2 2 2 2 3 4 5 5 5 5 6 6 8 9 9 10 10 10 10 10 10 11 10 10
7 7 7 8 8 8 7 7 7 7 7 7 6 6 5 4 3 3 3 4 3 3 3 3 4 5 5 6 6 6 7 8 9 10 10 11 11 11 11 10 10 10 11
6 6 7 6 7 7 7 7 6 7 7 6 6 6 6 5 4 4 4 4 3 3 3 4 6 6 6 7 7 7 7 8 9 10 10 11 11 12 11 11 10 11 12
5 6 6 6 6 7 7 6 6 6 7 6 6 6 6 5 4 4 4 4 4 4 4 5 6 7 7 7 8 8 8 9 10 11 11 12 11 11 11 11 11 11 12
4 5 5 6 6 6 6 6 6 6 6 6 6 6 6 6 5 4 5 5 5 6 7 7 7 7 8 7 8 8 9 10 11 11 11 11 10 10 10 10 11 12 13
5 5 5 6 7 6 6 6 5 5 6 6 6 6 7 6 5 5 5 6 7 7 7 8 8 8 7 8 8 9 9 9 10 10 10 10 9 9 10 11 12 13 13
Wind_Direction
62 62 67 81 82 79 83 94 102 109 123 125 131 137 141 139 138 138 141 142 145 145 140 137 140 141 147 147 152 154 156 160 168 169 163 156 152 153 155 155 155 160 155
60 61 71 83 81 78 84 98 100 103 109 118 127 134 140 137 136 135 137 138 142 140 136 139 142 141 148 147 144 144 149 150 151 153 152 151 155 157 151 161 163 162 163
64 67 75 83 81 81 83 95 101 98 108 114 127 136 137 134 135 135 135 140 140 137 134 132 140 141 145 144 142 143 144 140 138 145 151 155 156 158 157 160 168 176 176
65 68 70 79 84 86 87 92 100 100 112 120 128 136 139 138 138 136 136 141 143 139 136 129 133 136 137 140 139 137 135 134 136 145 149 155 157 160 163 165 167 175 176
62 65 69 76 82 86 90 95 98 106 117 123 131 137 139 141 142 138 141 144 145 139 131 131 129 132 134 135 136 136 138 139 141 144 142 152 162 171 169 165 168 179 179
66 68 74 77 80 83 91 98 100 110 122 124 126 130 137 143 145 141 139 141 141 138 135 133 129 130 132 130 130 132 132 141 147 148 147 148 155 165 160 148 158 174 180
69 69 73 75 74 75 84 95 100 113 127 127 126 126 129 134 138 137 135 134 138 140 138 137 131 131 133 130 125 132 139 139 144 144 152 162 162 163 157 152 163 178 190
68 69 72 73 74 77 82 89 101 110 120 126 121 121 126 133 136 133 137 139 142 142 143 143 138 135 136 133 128 134 143 149 152 151 153 161 171 166 164 160 170 199 221
70 70 74 76 73 78 84 90 94 101 111 115 115 120 127 134 139 136 139 143 144 145 147 144 143 138 132 132 132 130 134 149 156 162 163 178 195 191 190 199 209 235 266
72 72 76 77 77 81 86 91 95 101 110 117 118 120 124 133 138 142 144 147 149 149 149 149 147 141 132 132 131 132 134 150 168 171 175 197 206 225 228 218 229 241 274
72 76 78 78 78 83 87 91 96 102 107 116 120 117 118 126 138 146 149 150 150 149 152 152 149 152 148 145 137 143 151 166 176 177 186 199 207 237 234 236 248 258 276
74 76 77 79 79 82 87 89 89 99 105 111 120 121 122 127 137 147 151 152 153 155 158 163 168 172 167 165 165 162 170 186 190 192 203 209 218 239 242 250 262 271 276
72 75 77 81 79 81 83 86 85 92 101 110 112 119 122 125 136 149 149 157 160 167 177 182 184 190 196 198 211 218 223 228 221 219 225 233 236 244 253 261 270 278 277
69 73 78 79 76 75 75 81 84 82 90 102 105 106 106 115 133 158 158 161 170 180 192 210 214 223 230 233 239 239 246 248 242 245 244 245 247 254 263 260 263 271 272
71 73 75 78 77 77 78 76 77 76 80 96 98 100 103 112 120 141 158 170 176 196 215 231 241 248 258 255 251 251 260 259 260 260 254 255 258 263 266 264 273 276 274
72 73 73 74 75 77 78 76 74 74 73 78 84 90 103 110 110 127 165 179 201 216 223 231 240 253 258 261 260 262 259 257 258 261 261 258 260 263 268 271 276 278 274
71 74 73 72 72 75 74 73 74 75 68 69 72 75 82 96 105 127 149 176 203 215 222 230 233 242 251 256 261 262 263 267 263 261 259 261 260 263 270 274 276 277 273
69 71 73 71 71 73 72 71 72 71 70 70 69 67 76 81 77 126 143 190 200 220 237 244 244 252 262 260 261 265 268 269 268 266 261 261 260 262 268 273 275 275 275
66 68 69 68 68 70 69 68 66 65 64 61 56 58 74 75 62 57 5 238 221 237 261 266 269 268 269 267 267 268 270 275 273 269 271 264 266 266 264 267 273 273 274
62 63 64 63 62 63 60 58 56 55 54 48 43 45 47 35 28 27 356 307 278 275 280 284 277 279 275 267 271 277 273 277 280 272 273 272 273 273 268 266 268 270 270
61 59 58 57 55 53 51 50 47 43 42 38 35 35 33 31 24 9 360 338 324 317 306 298 297 296 284 274 273 277 277 279 284 280 278 276 276 278 279 276 275 272 273
55 54 51 49 46 43 42 41 36 33 30 29 26 29 25 19 15 359 348 339 337 318 302 299 300 297 294 287 287 279 276 276 285 284 279 276 277 278 278 278 277 276 277
49 47 44 41 37 33 31 31 28 24 24 21 22 21 16 6 352 351 348 342 335 332 316 300 299 298 298 294 295 292 281 282 286 284 281 277 274 274 271 272 273 280 279
35 34 32 30 26 25 25 24 21 19 18 14 13 11 14 13 3 356 354 343 332 326 317 307 301 298 300 298 298 298 290 285 284 282 280 281 277 272 268 270 275 281 282
10 16 14 15 13 11 11 12 13 11 7 5 5 5 7 6 360 350 350 346 338 327 318 310 303 299 298 295 298 302 299 291 287 288 285 281 280 276 273 274 281 281 281
340 346 356 354 353 352 356 358 357 354 353 351 351 352 353 354 346 334 338 338 335 330 322 314 306 301 296 292 294 299 302 296 295 294 294 290 286 285 287 284 288 286 283